Terug naar catalogus

STARLINK-3883

ActiefCommunicatieVLEO
NORAD 52493·PAYLOAD·🇺🇸 United States

Gelanceerd May 6, 2022 vanaf Cape Canaveral Space Force Station

Loading…

Volgende Passages (komende 24 uur)

TLE

VersSource: CelesTrak SupGP

Epoch: Sep 14, 2026, 20:59 UTC

1 52493C 22049AU  26257.87479167  .00042872  00000+0  12266-2 0  2579
2 52493  53.1586 270.3217 0001289  86.0440 125.0005 15.35377255    14

Volg STARLINK-3883 in realtime met AllMySat

Download on the App Store